Greenville, AL

10:56 AM CDT on June 27, 2017 (GMT -0500)
Greenville Municipal

Weather History for KPRN - June, 2013

Change the Weather History Date:

Thursday, June 27, 2013

  Actual Average Record
Temperature  
Mean Temperature 83 °F -  
Max Temperature 91 °F 90 °F 106 °F (1954)
Min Temperature 75 °F 67 °F 59 °F (1981)
Cooling Degree Days 18    
Growing Degree Days 33 (Base 50)    
Moisture  
Dew Point 73 °F    
Average Humidity 74    
Maximum Humidity 94    
Minimum Humidity 52    
Precipitation  
Precipitation 0.00 in - - ()
Sea Level Pressure  
Sea Level Pressure 29.95 in    
Wind  
Wind Speed 5 mph (WSW)    
Max Wind Speed 10 mph    
Max Gust Speed 16 mph    
Visibility 10 miles    
Events      
Averages and records for this station are not official NWS values.
T = Trace of Precipitation, MM = Missing Value Source: NWS Daily Summary

Daily Weather History Graph

Daily Weather History Graph

Search for Another Location

Airport or City:

Trip Planner

Search our weather history database for the weather conditions in past years. The results will help you decide how hot, cold, wet, or windy it might be!

Date:

Astronomy

Jun. 27, 2013 Rise Set
Actual Time 5:43 AM CDT 7:56 PM CDT
Civil Twilight 5:14 AM CDT 8:24 PM CDT
Nautical Twilight 4:40 AM CDT 8:58 PM CDT
Astronomical Twilight 4:03 AM CDT 9:35 PM CDT
Moon 11:13 PM CDT 10:25 AM CDT
Length of Visible Light 15h 09m
Length of Day
14h 13m
Waning Gibbous, 76% of the Moon is Illuminated
Jun 27
Waning Gibbous
Jun 29
Last Quarter
Jul 8
New
Jul 15
First Quarter
Jul 22
Full

Hourly Weather History & Observations

Time (CDT) Temp. Heat Index Dew Point Humidity Pressure Visibility Wind Dir Wind Speed Gust Speed Precip Events Conditions
12:56 AM 77.0 °F - 73.0 °F 88% 29.99 in 10.0 mi SSW 5.8 mph - N/A   Clear
1:56 AM 75.9 °F - 73.0 °F 91% 29.99 in 10.0 mi SW 4.6 mph - N/A   Clear
2:56 AM 75.0 °F - 73.0 °F 94% 30.00 in 10.0 mi Calm Calm - N/A   Clear
3:56 AM 75.0 °F - 73.0 °F 94% 29.99 in 10.0 mi WSW 4.6 mph - N/A   Clear
4:56 AM 75.0 °F - 73.0 °F 94% 29.99 in 10.0 mi West 4.6 mph - N/A   Clear
5:56 AM 75.0 °F - 73.0 °F 94% 29.99 in 10.0 mi WSW 3.5 mph - N/A   Clear
6:56 AM 75.9 °F - 73.9 °F 94% 30.00 in 10.0 mi West 6.9 mph - N/A   Clear
7:56 AM 80.1 °F 85.1 °F 75.0 °F 85% 29.99 in 10.0 mi WSW 6.9 mph - N/A   Clear
8:56 AM 82.0 °F 88.6 °F 75.0 °F 79% 30.00 in 10.0 mi West 6.9 mph - N/A   Clear
9:56 AM 82.9 °F 90.2 °F 75.0 °F 77% 30.00 in 10.0 mi WSW 4.6 mph - N/A   Clear
10:56 AM 84.0 °F 91.2 °F 73.9 °F 72% 29.99 in 10.0 mi Variable 6.9 mph - N/A   Clear
11:56 AM 87.1 °F 96.3 °F 75.0 °F 67% 29.98 in 10.0 mi WNW 4.6 mph - N/A   Mostly Cloudy
12:56 PM 89.1 °F 97.0 °F 73.0 °F 59% 29.96 in 10.0 mi West 9.2 mph - N/A   Mostly Cloudy
1:56 PM 91.0 °F 99.3 °F 73.0 °F 55% 29.94 in 10.0 mi WSW 10.4 mph 16.1 mph N/A   Partly Cloudy
2:56 PM 91.9 °F 99.5 °F 72.0 °F 52% 29.92 in 10.0 mi West 8.1 mph - N/A   Partly Cloudy
3:56 PM 90.0 °F 96.9 °F 72.0 °F 55% 29.91 in 10.0 mi Variable 4.6 mph - N/A   Partly Cloudy
4:56 PM 91.0 °F 99.3 °F 73.0 °F 55% 29.89 in 10.0 mi WSW 8.1 mph - N/A   Partly Cloudy
5:56 PM 90.0 °F 96.9 °F 72.0 °F 55% 29.88 in 10.0 mi West 9.2 mph - N/A   Partly Cloudy
6:56 PM 89.1 °F 97.0 °F 73.0 °F 59% 29.88 in 10.0 mi West 5.8 mph - N/A   Clear
7:56 PM 86.0 °F 93.8 °F 73.9 °F 67% 29.88 in 10.0 mi WSW 6.9 mph - N/A   Clear
8:56 PM 84.0 °F 91.2 °F 73.9 °F 72% 29.90 in 10.0 mi Calm Calm - N/A   Clear
9:56 PM 82.9 °F 89.4 °F 73.9 °F 74% 29.91 in 10.0 mi WSW 4.6 mph - N/A   Clear
10:56 PM 82.0 °F 87.9 °F 73.9 °F 76% 29.90 in 10.0 mi WSW 5.8 mph - N/A   Clear
11:56 PM 81.0 °F 86.2 °F 73.9 °F 79% 29.89 in 10.0 mi West 5.8 mph - N/A   Clear